Regional Weather Roundup
Issued by NWS Mt. Holly, NJ

Home | Current Version | Previous Version | Text Only | Print | Product List | Glossary On
Versions: 1 2 3 4 5 6 7 8 9 10 11 12 13 14 15 16 17 18 19 20 21 22 23 24 25 26 27 28 29 30 31 32 33 34 35 36 37 38 39 40 41 42 43 44 45 46 47 48 49 50
000
ASUS41 KPHI 241812
RWRPHI

REGIONAL WEATHER ROUNDUP
NATIONAL WEATHER SERVICE MOUNT HOLLY NJ
200 PM EDT SUN JUL 24 2016

NOTE:  "FAIR" INDICATES FEW OR NO CLOUDS BELOW 12,000 FEET WITH NO
SIGNIFICANT WEATHER AND/OR OBSTRUCTIONS TO VISIBILITY.

 * = STATION DOES NOT REPORT PRECIPITATION (E.G. RAIN, SNOW, ETC.)
        OR FOG.

NJZ015>026-241900-
SOUTHERN NEW JERSEY

CITY           SKY/WX    TMP DP  RH WIND       PRES   REMARKS
POMONA         NOT AVBL
MILLVILLE      CLOUDY    89  65  44 VRB6      30.00F HX  91
WRIGHTSTOWN    MOSUNNY   93  58  30 NW10      29.96S HX  92
MOUNT HOLLY    MOSUNNY   89  62  40 VRB6      29.98F
TRENTON        SUNNY     90  60  36 CALM      29.98F
6HR MIN TEMP:  76; 6HR MAX TEMP:  92;


$$
NJZ001>014-241900-
NORTHERN NEW JERSEY

CITY           SKY/WX    TMP DP  RH WIND       PRES   REMARKS
SUSSEX         MOSUNNY   91  58  32 VRB6      29.98F HX  90
ANDOVER*         N/A     89  60  37 VRB5      30.00S
MORRISTOWN     PTSUNNY   90  57  33 N8        29.98S
NEWARK         PTSUNNY   94  56  27 W10G18    29.96S HX  92
TETERBORO      PTSUNNY   92  54  27 CALM      29.94F HX  90
CALDWELL       PTSUNNY   92  58  31 VRB5      29.97S HX  91
SOMERVILLE     MOSUNNY   91  59  33 VRB7      29.96F HX  90
ALLAIRE*       MOSUNNY   86  63  45 S10       30.00S
TOMS RIVER*    CLOUDY    90  68  48 SE14      29.99S HX  93

$$
PAZ043-044-047-054-055-060>062-066>071-241900-
EASTERN PENNSYLVANIA

CITY           SKY/WX    TMP DP  RH WIND       PRES   REMARKS
PHILADELPHIA   PTSUNNY   92  59  33 S10       29.99F HX  91
6HR MIN TEMP:  80; 6HR MAX TEMP:  93;

NORTH PHILA    MOSUNNY   94  61  33 VRB6      29.99F HX  94
BLUE BELL*     MOSUNNY   90  63  40 S5        29.98F HX  90
DOYLESTOWN     MOSUNNY   91  53  27 VRB5      29.98F
QUAKERTOWN*    MOSUNNY   93  59  31 NW3       30.01F HX  92
PERKASIE*      FAIR      91  57  31 NW8       30.01F HX  90
POTTSTOWN      SUNNY     93  56  28 N6        30.00F HX  91
LANCASTER      SUNNY     88  61  40 MISG      30.00F
COATESVILLE    SUNNY     88  64  45 VRB3      30.03F
READING        SUNNY     93  56  28 S9        29.97F HX  91
6HR MIN TEMP:  73; 6HR MAX TEMP:  95;

ALLENTOWN      PTSUNNY   92  61  35 VRB3      29.99F HX  92
6HR MIN TEMP:  72; 6HR MAX TEMP:  93;

MOUNT POCONO   CLOUDY    85  56  37 W8        30.07F
6HR MIN TEMP:  69; 6HR MAX TEMP:  86;

HAZLETON       MOSUNNY   88  55  33 W7        30.08F
LEHIGHTON      FAIR      90  55  31 NW5       30.00F
WILKES BARRE   CLOUDY    89  59  36 W8        30.00F

$$
DEZALL-MDZ008-012-015-019-020-241900-
DELAWARE AND EASTERN MARYLAND

CITY           SKY/WX    TMP DP  RH WIND       PRES   REMARKS
WILMINGTON     PTSUNNY   90  64  42 CALM      30.00F HX  91
6HR MIN TEMP:  77; 6HR MAX TEMP:  91;

DOVER          PTSUNNY   86  72  61 SE8       29.99F HX  92
GEORGETOWN     CLOUDY    90  64  42 E5        30.01S HX  91
6HR MIN TEMP:  82; 6HR MAX TEMP:  92;

EASTON         SUNNY     93  73  52 E3        30.03F HX 102
PATUXENT       CLOUDY    92  64  39 E6        29.99F HX  93
OCEAN CITY     CLOUDY    82  74  76 E6        30.01S
WALLOPS ISLAND FAIR      88  73  61 NE9       30.00S HX  95
CAMBRIDGE      MOSUNNY   91  66  43 S3        29.99F HX  94
SALISBURY      PTSUNNY   91  66  43 VRB5      29.99F HX  93

$$
PAZ001-021-NYZ056-072-MDZ011-DCZ001-241900-
OTHER NEARBY LOCATIONS

CITY           SKY/WX    TMP DP  RH WIND       PRES   REMARKS
HARRISBURG     CLOUDY    91  65  41 SE5       29.99F HX  93
STATE COLLEGE  SUNNY     88  61  40 SW6       30.02F
WILLIAMSPORT   CLOUDY    92  50  23 W8        29.97F
BINGHAMTON     MOSUNNY   86  56  35 VRB3      30.02F
NEW YORK CITY  MOSUNNY   92  60  34 SW6       29.98F HX  91
BALTIMORE      PTSUNNY   91  61  36 SE6       29.99F HX  91
WASHINGTON DC  PTSUNNY   94  65  38 S6        29.99F HX  96

$$



USA.gov is the U.S. government's official web portal to all federal, state and local government web resources and services.